When you browse on this site, cookies collect data to enhance your experience and personalize the content and advertising you see.
Visit our Privacy Policy to learn more. By continuing to use the site, you agree to this use of cookies and data.

Hourly Weather Bridlington

Today, 3 July, Friday

Time Temperature Precipitation Wind Pressure Humidity
00:00 +11°C° 0 mm 4 mps 758 mmHg 91%
01:00 +11°C° 0 mm 4 mps 757 mmHg 91%
02:00 +10°C° 0 mm 5 mps 757 mmHg 90%
03:00 +10°C° 0 mm 5 mps 757 mmHg 90%
04:00 +10°C° 0 mm 5 mps 757 mmHg 90%
05:00 +10°C° 0 mm 6 mps 757 mmHg 89%
06:00 +11°C° 0 mm 6 mps 756 mmHg 89%
07:00 +11°C° 0.2 mm 6 mps 756 mmHg 88%
08:00 +11°C° 0.2 mm 7 mps 756 mmHg 87%
09:00 +12°C° 0.2 mm 7 mps 756 mmHg 87%
10:00 +12°C° 0.2 mm 8 mps 755 mmHg 86%
11:00 +13°C° 0.2 mm 9 mps 755 mmHg 85%
12:00 +13°C° 0.2 mm 9 mps 755 mmHg 84%
13:00 +15°C° 0 mm 9 mps 754 mmHg 84%
14:00 +16°C° 0 mm 9 mps 754 mmHg 83%
15:00 +16°C° 0 mm 10 mps 754 mmHg 83%
16:00 +16°C° 0.1 mm 9 mps 754 mmHg 85%
17:00 +16°C° 0.1 mm 9 mps 754 mmHg 87%
18:00 +15°C° 0.1 mm 9 mps 753 mmHg 89%
19:00 +15°C° 0.1 mm 8 mps 754 mmHg 90%
20:00 +15°C° 0.1 mm 8 mps 754 mmHg 91%
21:00 +15°C° 0.1 mm 8 mps 754 mmHg 92%
22:00 +15°C° 0 mm 7 mps 754 mmHg 92%
23:00 +15°C° 0 mm 6 mps 754 mmHg 93%

Tomorrow, 4 July, Saturday

Time Temperature Precipitation Wind Pressure Humidity
00:00 +15°C° 0 mm 6 mps 754 mmHg 93%
01:00 +15°C° 0 mm 5 mps 754 mmHg 94%
02:00 +15°C° 0 mm 5 mps 754 mmHg 94%
03:00 +15°C° 0 mm 4 mps 753 mmHg 95%
04:00 +15°C° 0.2 mm 5 mps 753 mmHg 95%
05:00 +15°C° 0.2 mm 5 mps 753 mmHg 96%
06:00 +15°C° 0.2 mm 6 mps 753 mmHg 96%
07:00 +16°C° 0.2 mm 6 mps 752 mmHg 94%
08:00 +17°C° 0.2 mm 7 mps 752 mmHg 93%
09:00 +17°C° 0.2 mm 7 mps 751 mmHg 92%
10:00 +18°C° 0.1 mm 8 mps 751 mmHg 90%
11:00 +18°C° 0.1 mm 8 mps 751 mmHg 89%
12:00 +18°C° 0.1 mm 8 mps 751 mmHg 88%
13:00 +18°C° 0.2 mm 8 mps 751 mmHg 88%
14:00 +18°C° 0.2 mm 8 mps 751 mmHg 89%
15:00 +17°C° 0.2 mm 8 mps 751 mmHg 89%
16:00 +17°C° 0 mm 8 mps 751 mmHg 87%
17:00 +17°C° 0 mm 8 mps 751 mmHg 85%
18:00 +17°C° 0 mm 8 mps 751 mmHg 83%
19:00 +16°C° 0 mm 8 mps 752 mmHg 84%
20:00 +16°C° 0 mm 7 mps 752 mmHg 86%
21:00 +15°C° 0 mm 6 mps 753 mmHg 87%
22:00 +14°C° 0 mm 6 mps 752 mmHg 90%
23:00 +14°C° 0 mm 5 mps 752 mmHg 92%

Day after tomorrow, 5 July, Sunday

Time Temperature Precipitation Wind Pressure Humidity
00:00 +13°C° 0 mm 5 mps 752 mmHg 95%
01:00 +13°C° 0 mm 6 mps 751 mmHg 94%
02:00 +14°C° 0 mm 6 mps 751 mmHg 92%
03:00 +15°C° 0 mm 7 mps 750 mmHg 91%
04:00 +15°C° 0.4 mm 8 mps 749 mmHg 91%
05:00 +16°C° 0.4 mm 9 mps 748 mmHg 90%
06:00 +17°C° 0.4 mm 10 mps 747 mmHg 90%
07:00 +16°C° 0.2 mm 11 mps 747 mmHg 85%
08:00 +15°C° 0.2 mm 12 mps 747 mmHg 81%
09:00 +14°C° 0.2 mm 12 mps 747 mmHg 77%
10:00 +15°C° 0 mm 12 mps 748 mmHg 72%
11:00 +15°C° 0 mm 12 mps 748 mmHg 67%
12:00 +15°C° 0 mm 12 mps 749 mmHg 62%
13:00 +16°C° 0 mm 11 mps 750 mmHg 62%
14:00 +16°C° 0 mm 10 mps 750 mmHg 62%
15:00 +16°C° 0 mm 10 mps 751 mmHg 62%
16:00 +16°C° 0 mm 9 mps 751 mmHg 65%
17:00 +16°C° 0 mm 9 mps 751 mmHg 67%
18:00 +15°C° 0 mm 8 mps 751 mmHg 69%
19:00 +13°C° 0 mm 8 mps 751 mmHg 71%
20:00 +12°C° 0 mm 8 mps 752 mmHg 73%
21:00 +11°C° 0 mm 7 mps 752 mmHg 75%
22:00 +10°C° 0 mm 8 mps 752 mmHg 76%
23:00 +10°C° 0 mm 8 mps 751 mmHg 77%

6 July, Monday

Time Temperature Precipitation Wind Pressure Humidity
00:00 +10°C° 0 mm 9 mps 751 mmHg 78%
01:00 +10°C° 0 mm 8 mps 751 mmHg 80%
02:00 +9°C° 0 mm 8 mps 751 mmHg 83%
03:00 +9°C° 0 mm 8 mps 751 mmHg 85%
04:00 +10°C° 0 mm 9 mps 752 mmHg 83%
05:00 +10°C° 0 mm 9 mps 753 mmHg 81%
06:00 +10°C° 0 mm 9 mps 753 mmHg 80%
07:00 +11°C° 0 mm 9 mps 754 mmHg 75%
08:00 +12°C° 0 mm 9 mps 755 mmHg 71%
09:00 +15°C° 0 mm 9 mps 757 mmHg 67%
10:00 +15°C° 0 mm 9 mps 758 mmHg 64%
11:00 +14°C° 0 mm 10 mps 759 mmHg 62%
12:00 +14°C° 0 mm 10 mps 760 mmHg 59%
13:00 +16°C° 0 mm 9 mps 760 mmHg 59%
14:00 +16°C° 0 mm 8 mps 761 mmHg 59%
15:00 +16°C° 0 mm 7 mps 762 mmHg 59%
16:00 +15°C° 0 mm 5 mps 763 mmHg 62%
17:00 +16°C° 0 mm 3 mps 763 mmHg 65%
18:00 +16°C° 0 mm 2 mps 764 mmHg 68%
19:00 +15°C° 0 mm 2 mps 764 mmHg 73%
20:00 +12°C° 0 mm 3 mps 764 mmHg 78%
21:00 +11°C° 0 mm 4 mps 765 mmHg 83%
22:00 +10°C° 0 mm 4 mps 765 mmHg 85%
23:00 +8°C° 0 mm 5 mps 765 mmHg 87%

7 July, Tuesday

Time Temperature Precipitation Wind Pressure Humidity
00:00 +7°C° 0 mm 6 mps 765 mmHg 89%
01:00 +7°C° 0 mm 6 mps 765 mmHg 88%
02:00 +7°C° 0 mm 6 mps 765 mmHg 86%
03:00 +7°C° 0 mm 6 mps 765 mmHg 85%
04:00 +8°C° 0 mm 6 mps 765 mmHg 84%
05:00 +9°C° 0 mm 6 mps 765 mmHg 84%
06:00 +10°C° 0 mm 7 mps 765 mmHg 83%
07:00 +11°C° 0 mm 6 mps 765 mmHg 78%
08:00 +13°C° 0 mm 6 mps 765 mmHg 72%
09:00 +15°C° 0 mm 6 mps 765 mmHg 67%
10:00 +16°C° 0 mm 5 mps 765 mmHg 65%
11:00 +17°C° 0 mm 5 mps 765 mmHg 62%
12:00 +18°C° 0 mm 4 mps 765 mmHg 60%
13:00 +18°C° 0.1 mm 4 mps 765 mmHg 61%
14:00 +19°C° 0.1 mm 3 mps 765 mmHg 62%
15:00 +19°C° 0.1 mm 2 mps 765 mmHg 63%
16:00 +18°C° 0 mm 2 mps 765 mmHg 66%
17:00 +17°C° 0 mm 3 mps 765 mmHg 69%
18:00 +17°C° 0 mm 3 mps 765 mmHg 72%
19:00 +16°C° 0 mm 3 mps 765 mmHg 76%
20:00 +13°C° 0 mm 4 mps 765 mmHg 79%
21:00 +12°C° 0 mm 4 mps 765 mmHg 83%
22:00 +11°C° 0 mm 4 mps 765 mmHg 84%
23:00 +10°C° 0 mm 3 mps 765 mmHg 85%

8 July, Wednesday

Time Temperature Precipitation Wind Pressure Humidity
00:00 +10°C° 0 mm 3 mps 764 mmHg 85%
01:00 +9°C° 0 mm 3 mps 764 mmHg 84%
02:00 +9°C° 0 mm 3 mps 764 mmHg 83%
03:00 +9°C° 0 mm 3 mps 764 mmHg 81%
04:00 +10°C° 0 mm 3 mps 763 mmHg 79%
05:00 +11°C° 0 mm 4 mps 763 mmHg 77%
06:00 +12°C° 0 mm 4 mps 763 mmHg 75%
07:00 +13°C° 0 mm 4 mps 763 mmHg 72%
08:00 +15°C° 0 mm 5 mps 762 mmHg 70%
09:00 +16°C° 0 mm 5 mps 762 mmHg 67%
10:00 +17°C° 0 mm 5 mps 762 mmHg 66%
11:00 +17°C° 0 mm 5 mps 762 mmHg 64%
12:00 +19°C° 0 mm 5 mps 761 mmHg 63%
13:00 +17°C° 0 mm 5 mps 761 mmHg 66%
14:00 +17°C° 0 mm 5 mps 761 mmHg 68%
15:00 +17°C° 0 mm 4 mps 760 mmHg 71%
16:00 +17°C° 0 mm 4 mps 760 mmHg 71%
17:00 +17°C° 0 mm 4 mps 760 mmHg 71%
18:00 +16°C° 0 mm 3 mps 759 mmHg 71%
19:00 +16°C° 0 mm 3 mps 759 mmHg 73%
20:00 +16°C° 0 mm 3 mps 759 mmHg 74%
21:00 +14°C° 0 mm 3 mps 759 mmHg 76%
22:00 +14°C° 0.1 mm 3 mps 759 mmHg 79%
23:00 +14°C° 0.1 mm 3 mps 759 mmHg 83%
Show more